Regional Weather Roundup
Issued by NWS

Home | Current Version | Previous Version | Graphics & Text | Print | Product List | Glossary On
Versions: 1 2 3 4 5 6 7 8 9 10 11 12 13 14 15 16 17 18 19 20 21 22 23 24 25 26 27 28 29 30 31 32 33 34 35 36 37 38 39 40 41 42 43 44 45 46 47 48 49 50
000
ASUS43 KLOT 011912
RWRIL

ILLINOIS REGIONAL WEATHER ROUNDUP
NATIONAL WEATHER SERVICE CHICAGO/ROMEOVILLE IL
200 PM CDT TUE SEP 01 2015

NOTE: "FAIR" INDICATES FEW OR NO CLOUDS BELOW 12,000 FEET WITH NO
SIGNIFICANT WEATHER AND/OR OBSTRUCTIONS TO VISIBILITY.

* THESE STATIONS ARE NOT UNDER NWS QUALITY CONTROL. THEY ALSO MAY NOT
  REPORT WEATHER SUCH AS PRECIPITATION OR FOG.

ILZ001-002-007-009-015-016-024-012000-
NORTHWEST ILLINOIS

CITY           SKY/WX    TMP DP  RH WIND       PRES   REMARKS
MOLINE         SUNNY     90  72  55 S10       29.99F HX  97
STERLING*      MOSUNNY  N/A N/A N/A SW10G16   29.98F
SAVANNA*       SUNNY     90  69  50 SW10      29.99S HX  94
$$

ILZ003-004-008-010-011-017-018-012000-
NORTH CENTRAL ILLINOIS

CITY           SKY/WX    TMP DP  RH WIND       PRES   REMARKS
ROCKFORD       MOSUNNY   88  71  57 SW9       30.02F HX  94
FREEPORT*      MOSUNNY   87  73  63 SW10G17   30.02F HX  94
ROCHELLE*      MOSUNNY   87  73  62 SW10G16   30.03S HX  94
DE KALB*       MOSUNNY   87  72  60 SW13G18   30.04S HX  94
PERU*          SUNNY     90  67  47 SW12G18   30.02F HX  93
$$

ILZ005-006-012>014-019>023-012000-
NORTHEAST ILLINOIS

CITY           SKY/WX    TMP DP  RH WIND       PRES   REMARKS
CHICAGO-OHARE  MOSUNNY   87  71  58 SW10G20   30.01F HX  93
CHICAGO-MIDWAY MOSUNNY   86  71  60 SW12      30.02F HX  91
AURORA         MOSUNNY   88  72  58 SW10      30.03F HX  94
LANSING*       SUNNY     83  69  64 SW13      30.05S HX  86
JOLIET*        MOSUNNY   86  74  67 S9        30.03F HX  95
WAUKEGAN       PTSUNNY   84  73  69 SE9       30.00F HX  90
DUPAGE AIRPORT MOSUNNY   87  73  62 SW10      30.02F HX  94
KANKAKEE*      SUNNY     85  71  62 SW14      30.06F HX  90
WHEELING       MOSUNNY   90  68  48 SW10      30.02F HX  94
MORRIS*        MOSUNNY   85  75  72 S10       30.02S HX  94
ROMEOVILLE*    SUNNY     84  71  65 S9G16     30.04S HX  88
NORTHERLY ISL    N/A     84  69  60 S13         N/A  HX  88
$$

LMZ740>746-012000-
SOUTHERN LAKE MICHIGAN

STATION/POSITION SKY/WX   TEMP    WIND        PRES    VSBY  WAVE
                          AIR SEA DIR/SP/G                  HT/PER
                          (F)     (DEG/KT/KT) (MB)    (MI)  (FT/S)
SOUTHERN BUOY              72 70  170/ 10/ 12 1016.1F         1/ 3
WILMETTE HARBOR            70 61  310/  8/ 10   N/A           1/ 2
HARRISON CRIB              78     180/ 17/ 20   N/A
BURNHAM HARBOR             84     180/  9/ 16   N/A
CALUMET HARBOR             81     180/ 11/ 19   N/A
BURNS HARBOR               79     200/ 12/ 17 1018.3F
MICHIGAN CITY              79     190/ 14/ 17   N/A
MICHIGAN CITY 6N           76 72  240/  8/  8   N/A           1/ 3
ST. JOSEPH                 76 73  280/ 12/ 16   N/A           1
$$

ILZ025>027-034>036-040-047-049-050-058-095>099-012000-
WEST-CENTRAL ILLINOIS

CITY           SKY/WX    TMP DP  RH WIND       PRES   REMARKS
QUINCY         SUNNY     91  68  46 SW8       30.03F HX  95
GALESBURG*     SUNNY     89  70  52 SW12      30.03S HX  94
MACOMB*        SUNNY     92  67  44 SW8       30.05S HX  95
JACKSONVILLE*  SUNNY     92  68  44 S7        30.05S HX  96
PITTSFIELD*    SUNNY     91  68  47 S9        30.06F HX  95
$$

ILZ028>032-037-038-041>044-048-051>054-059>061-012000-
CENTRAL ILLINOIS

CITY           SKY/WX    TMP DP  RH WIND       PRES   REMARKS
PONTIAC        SUNNY     85  75  71 S12       30.06F HX  93
BLOOMINGTON    MOSUNNY   89  74  61 S14       30.07F HX  97
DECATUR        MOSUNNY   90  71  53 S12       30.06F HX  96
PEORIA         SUNNY     94  67  41 SW10      30.03F HX  97
LACON*         SUNNY     89  72  57 S8        30.02S HX  95
LINCOLN*       MOSUNNY   93  67  42 SW7       30.03F HX  97
SPRINGFIELD    PTSUNNY   92  70  48 W9        30.05F HX  97
TAYLORVILLE    PTSUNNY   90  70  51 S8        30.06S HX  95
$$

ILZ033-039-045-046-055>057-062-063-012000-
EAST-CENTRAL ILLINOIS

CITY           SKY/WX    TMP DP  RH WIND       PRES   REMARKS
CHAMPAIGN      CLOUDY    83  71  67 S6        30.08F HX  87
RANTOUL*       PTSUNNY   78  73  83 SW6       30.08F HX  81
MATTOON        MOSUNNY   85  69  58 S7        30.08F HX  89
PARIS*         CLOUDY    81  72  75 S8        30.10F HX  85
$$

ILZ079-100>102-012000-
SOUTHWEST ILLINOIS

CITY           SKY/WX    TMP DP  RH WIND       PRES   REMARKS
ALTON          SUNNY     88  70  55 S9        30.07F HX  92
BELLEVILLE     MOSUNNY   90  74  58 VRB2      30.06F HX  99
CAHOKIA*       SUNNY     91  68  46 S7        30.06F HX  95
SPARTA*        SUNNY     87  71  59 S7        30.09F HX  92
$$

ILZ064>066-069>071-074>076-080>082-084>086-088>090-092>094-012000-
SOUTH-CENTRAL ILLINOIS

CITY           SKY/WX    TMP DP  RH WIND       PRES   REMARKS
CARBONDALE     SUNNY     87  69  54 SW6       30.10F HX  91
CAIRO*         SUNNY     86  73  64 S5        30.10F HX  92
EFFINGHAM*     MOSUNNY   87  66  50 S8        30.10F HX  89
MARION         MOSUNNY   88  70  55 S9        30.11F HX  92
MT. VERNON     SUNNY     90  70  51 SW9       30.10F HX  95
CENTRALIA*     MOSUNNY   89  72  57 S6        30.08F HX  96
SALEM*         MOSUNNY   90  70  51 SW6       30.09F HX  95
METROPOLIS*    SUNNY     88  71  57 S5        30.11F HX  93
$$

ILZ067-068-072-073-078-083-087-091-012000-
SOUTHEAST ILLINOIS

CITY           SKY/WX    TMP DP  RH WIND       PRES   REMARKS
LAWRENCEVILLE  MOSUNNY   87  67  51 CALM      30.10F HX  90
FLORA*         MOSUNNY   89  67  49 SW6       30.09F HX  92
FAIRFIELD*     SUNNY     88  69  54 S6        30.09S HX  92
HARRISBURG*    MOSUNNY   89  68  50 S7        30.10F HX  92
ROBINSON*      MOSUNNY   85  68  56 S10       30.11F HX  88
CARMI*         SUNNY     88  69  53 S9        30.09F HX  92
$$

ABBREVIATIONS USED IN REMARKS
   TC - TEMPERATURE IN CELSIUS
  WCI - WIND CHILL INDEX
   HX - HEAT INDEX
  VSB - VISIBILITY
$$



USA.gov is the U.S. government's official web portal to all federal, state and local government web resources and services.